TimeAKDT,TemperatureF,Dew PointF,Humidity,Sea Level PressureIn,VisibilityMPH,Wind Direction,Wind SpeedMPH,Gust SpeedMPH,PrecipitationIn,Events,Conditions,WindDirDegrees,DateUTC
12:53 AM,43.0,37.9,82,29.83,10.0,SE,8.1,-,0.00,,Overcast,140,2014-03-11 08:53:00
1:53 AM,43.0,39.0,86,29.82,10.0,SE,8.1,-,N/A,,Overcast,140,2014-03-11 09:53:00
2:36 AM,43.0,39.0,86,29.80,10.0,ESE,13.8,-,N/A,,Overcast,110,2014-03-11 10:36:00
2:53 AM,43.0,39.0,86,29.79,10.0,ESE,15.0,-,N/A,,Overcast,110,2014-03-11 10:53:00
3:53 AM,43.0,37.0,80,29.75,10.0,ESE,17.3,24.2,N/A,,Overcast,110,2014-03-11 11:53:00
4:53 AM,45.0,35.1,68,29.73,7.0,East,18.4,-,0.03,,Overcast,100,2014-03-11 12:53:00
5:53 AM,41.0,37.0,86,29.70,6.0,East,13.8,-,0.13,Rain,Rain,100,2014-03-11 13:53:00
6:53 AM,41.0,37.0,86,29.67,8.0,ESE,17.3,25.3,0.08,Rain,Light Rain,110,2014-03-11 14:53:00
8:24 AM,43.0,39.0,86,29.65,2.0,ESE,13.8,-,0.04,Rain,Rain,120,2014-03-11 16:24:00
8:51 AM,42.8,39.2,87,29.66,1.8,ESE,13.8,-,0.08,Rain,Light Rain,110,2014-03-11 16:51:00
8:53 AM,43.0,39.0,86,29.66,1.8,ESE,16.1,-,0.09,Rain,Rain,110,2014-03-11 16:53:00
9:51 AM,42.8,39.2,87,29.67,2.5,SE,11.5,20.7,0.06,,Overcast,140,2014-03-11 17:51:00
9:53 AM,43.0,39.9,89,29.68,2.5,SSE,11.5,20.7,0.06,,Overcast,150,2014-03-11 17:53:00
11:22 AM,45.0,44.1,97,29.70,3.0,South,16.1,24.2,0.03,Rain,Light Rain,180,2014-03-11 19:22:00
11:28 AM,45.0,44.1,97,29.71,3.0,South,13.8,24.2,0.03,Rain,Light Rain,180,2014-03-11 19:28:00
11:31 AM,45.0,44.1,97,29.71,2.5,South,16.1,24.2,0.03,Rain,Light Rain,180,2014-03-11 19:31:00
11:51 AM,44.6,44.6,100,29.71,6.0,North,-9999.0,-,0.05,,Overcast,0,2014-03-11 19:51:00
11:53 AM,45.0,44.1,97,29.71,3.0,South,9.2,17.3,0.05,Rain,Light Rain,170,2014-03-11 19:53:00
12:21 PM,45.0,44.1,97,29.71,5.0,South,9.2,17.3,0.03,Rain,Light Rain,170,2014-03-11 20:21:00
12:53 PM,45.0,44.1,97,29.72,4.0,SSE,10.4,-,0.04,Rain,Light Rain,150,2014-03-11 20:53:00
1:51 PM,44.6,42.8,93,29.72,3.0,South,13.8,-,0.14,Rain,Rain,180,2014-03-11 21:51:00
1:53 PM,45.0,43.0,93,29.72,3.0,South,13.8,-,0.14,Rain,Rain,170,2014-03-11 21:53:00
2:53 PM,45.0,43.0,93,29.72,3.0,SE,11.5,-,0.16,Rain,Rain,140,2014-03-11 22:53:00
3:31 PM,-9999,-9999,N/A,29.71,2.5,East,15.0,-,0.12,Rain,Rain,80,2014-03-11 23:31:00
3:49 PM,42.8,39.2,87,29.71,4.0,SE,8.1,23.0,0.17,Rain,Light Rain,130,2014-03-11 23:49:00
3:53 PM,43.0,39.9,89,29.71,4.0,East,12.7,23.0,0.18,Rain,Rain,100,2014-03-11 23:53:00
4:09 PM,43.0,39.9,89,29.71,2.5,ESE,9.2,-,0.05,Rain,Heavy Rain,120,2014-03-12 00:09:00
4:25 PM,41.0,39.9,96,29.72,1.2,South,8.1,17.3,0.14,Rain,Heavy Rain,190,2014-03-12 00:25:00
4:37 PM,43.0,39.9,89,29.72,2.5,SE,11.5,-,0.16,Rain,Light Rain,130,2014-03-12 00:37:00
4:44 PM,43.0,39.9,89,29.72,6.0,ESE,9.2,-,0.16,Rain,Light Rain,120,2014-03-12 00:44:00
4:51 PM,42.8,39.2,87,29.73,10.0,ESE,10.4,-,0.16,Rain,Light Rain,120,2014-03-12 00:51:00
4:53 PM,43.0,39.9,89,29.73,10.0,ESE,10.4,-,0.16,,Overcast,110,2014-03-12 00:53:00
5:53 PM,43.0,37.0,80,29.71,5.0,ESE,10.4,-,0.02,Rain,Light Rain,110,2014-03-12 01:53:00
6:02 PM,39.0,37.0,93,29.72,5.0,East,9.2,-,0.01,Rain,Light Rain,100,2014-03-12 02:02:00
6:53 PM,39.0,37.0,93,29.73,5.0,ESE,12.7,-,0.09,Rain,Rain,110,2014-03-12 02:53:00
7:15 PM,39.0,36.0,89,29.72,7.0,East,10.4,-,0.01,Rain,Light Rain,90,2014-03-12 03:15:00
7:53 PM,39.0,36.0,89,29.72,10.0,East,12.7,-,0.02,,Overcast,100,2014-03-12 03:53:00
8:53 PM,39.0,36.0,89,29.72,10.0,ESE,15.0,-,0.01,Rain,Light Rain,110,2014-03-12 04:53:00
9:27 PM,39.0,36.0,89,29.73,10.0,ESE,10.4,-,0.01,Rain,Light Rain,110,2014-03-12 05:27:00
9:51 PM,39.2,35.6,87,29.73,10.0,East,6.9,-,0.01,,Overcast,90,2014-03-12 05:51:00
9:53 PM,39.0,36.0,89,29.73,10.0,East,6.9,-,0.01,,Overcast,90,2014-03-12 05:53:00
10:53 PM,39.0,37.0,93,29.73,7.0,SE,6.9,-,0.01,Rain,Light Rain,130,2014-03-12 06:53:00
11:08 PM,39.0,37.0,93,29.73,9.0,ESE,10.4,-,0.01,Rain,Light Rain,120,2014-03-12 07:08:00
11:53 PM,39.0,37.0,93,29.71,10.0,ESE,5.8,-,0.01,,Overcast,110,2014-03-12 07:53:00